Вернуться в каталог

COSMOS 407

АктивенВоенныеLEO
NORAD 5174·PAYLOAD·🇷🇺 Russia

Запущен Apr 23, 1971 с Plesetsk Cosmodrome

Loading…

Ближайшие Пролёты (ближайшие 24 часа)

TLE

СвежийSource: Space-Track

Эпоха: Sep 14, 2026, 13:56 UTC

1 05174U 71035A   26257.58117784  .00000074  00000-0  35625-4 0  9992
2 05174  74.0441 306.9485 0017151 107.2273 253.0758 14.34266603893400

Отслеживайте COSMOS 407 в реальном времени с AllMySat

Download on the App Store